Powrót do katalogu

FENGYUN 1C DEB

AktywnyPO
NORAD 38157·DEBRIS·🇨🇳 China

Wystrzelony May 10, 1999 z Taiyuan Satellite Launch Center

Loading…

Następne Przeloty (najbliższe 24 godziny)

TLE

ŚwieżeSource: Space-Track

Epoka: Sep 14, 2026, 01:43 UTC

1 38157U 99025ERE 26257.07160705  .00001875  00000-0  58771-3 0  9999
2 38157  99.6585 195.5996 0271047  60.2446 302.5400 14.23027901801625

Śledź FENGYUN 1C DEB w czasie rzeczywistym z AllMySat

Download on the App Store